TimeEST,TemperatureF,Dew PointF,Humidity,Sea Level PressureIn,VisibilityMPH,Wind Direction,Wind SpeedMPH,Gust SpeedMPH,PrecipitationIn,Events,Conditions,WindDirDegrees,DateUTC
12:54 AM,60.1,55.0,83,30.37,10.0,SSE,5.8,-,N/A,,Clear,150,2012-11-12 05:54:00
1:54 AM,57.9,55.0,90,30.37,10.0,SSE,3.5,-,N/A,,Partly Cloudy,150,2012-11-12 06:54:00
2:54 AM,59.0,55.0,87,30.36,10.0,SSE,4.6,-,N/A,,Mostly Cloudy,150,2012-11-12 07:54:00
3:23 AM,59.0,55.4,88,30.37,10.0,Calm,Calm,-,N/A,,Mostly Cloudy,0,2012-11-12 08:23:00
3:31 AM,57.2,55.4,94,30.36,10.0,Calm,Calm,-,N/A,,Mostly Cloudy,0,2012-11-12 08:31:00
3:54 AM,57.9,55.0,90,30.35,10.0,SSE,3.5,-,N/A,,Scattered Clouds,150,2012-11-12 08:54:00
4:54 AM,57.0,55.0,93,30.34,10.0,Calm,Calm,-,N/A,,Mostly Cloudy,0,2012-11-12 09:54:00
5:54 AM,57.9,55.0,90,30.34,9.0,Calm,Calm,-,N/A,,Mostly Cloudy,0,2012-11-12 10:54:00
6:54 AM,55.9,55.0,97,30.33,5.0,Calm,Calm,-,N/A,,Partly Cloudy,0,2012-11-12 11:54:00
7:54 AM,57.0,55.0,93,30.34,5.0,Calm,Calm,-,N/A,,Mostly Cloudy,0,2012-11-12 12:54:00
8:54 AM,59.0,55.9,90,30.33,9.0,SE,3.5,-,N/A,,Partly Cloudy,140,2012-11-12 13:54:00
9:51 AM,62.6,57.2,82,30.35,10.0,Variable,4.6,-,N/A,,Mostly Cloudy,0,2012-11-12 14:51:00
9:54 AM,63.0,57.0,81,30.35,10.0,South,4.6,-,N/A,,Mostly Cloudy,190,2012-11-12 14:54:00
10:21 AM,64.4,57.2,77,30.35,10.0,South,4.6,-,N/A,,Mostly Cloudy,180,2012-11-12 15:21:00
10:54 AM,66.0,59.0,78,30.33,10.0,Variable,4.6,-,N/A,,Overcast,0,2012-11-12 15:54:00
11:30 AM,69.8,60.8,73,30.32,10.0,Variable,5.8,-,N/A,,Overcast,0,2012-11-12 16:30:00
11:54 AM,70.0,60.1,71,30.30,10.0,Variable,5.8,-,N/A,,Overcast,0,2012-11-12 16:54:00
12:08 PM,69.8,59.0,68,30.30,10.0,Variable,4.6,-,N/A,,Mostly Cloudy,0,2012-11-12 17:08:00
12:20 PM,69.8,60.8,73,30.29,10.0,Variable,4.6,-,N/A,,Overcast,0,2012-11-12 17:20:00
12:54 PM,70.0,59.0,68,30.26,10.0,South,5.8,-,N/A,,Mostly Cloudy,180,2012-11-12 17:54:00
1:54 PM,72.0,59.0,64,30.22,10.0,South,9.2,-,N/A,,Mostly Cloudy,170,2012-11-12 18:54:00
2:54 PM,72.0,57.0,59,30.19,10.0,South,4.6,-,N/A,,Scattered Clouds,170,2012-11-12 19:54:00
3:54 PM,71.1,57.9,63,30.18,10.0,South,8.1,-,0.00,,Overcast,190,2012-11-12 20:54:00
4:54 PM,70.0,59.0,68,30.19,10.0,South,8.1,-,N/A,,Mostly Cloudy,170,2012-11-12 21:54:00
5:54 PM,69.1,59.0,70,30.19,10.0,SSW,8.1,-,N/A,,Overcast,200,2012-11-12 22:54:00
6:54 PM,66.9,59.0,76,30.18,10.0,South,3.5,-,0.00,,Scattered Clouds,180,2012-11-12 23:54:00
7:54 PM,64.9,59.0,81,30.18,10.0,Calm,Calm,-,N/A,,Clear,0,2012-11-13 00:54:00
8:54 PM,63.0,57.9,84,30.19,10.0,Calm,Calm,-,N/A,,Mostly Cloudy,0,2012-11-13 01:54:00
9:54 PM,62.1,57.9,86,30.17,10.0,South,4.6,-,0.00,,Scattered Clouds,180,2012-11-13 02:54:00
10:54 PM,63.0,59.0,87,30.17,10.0,South,3.5,-,N/A,,Overcast,180,2012-11-13 03:54:00
11:54 PM,63.0,59.0,87,30.17,10.0,SSW,3.5,-,N/A,,Overcast,200,2012-11-13 04:54:00